Regional Weather Roundup
Issued by NWS Cleveland, OH

Home | Current Version | Previous Version | Graphics & Text | Print | Product List | Glossary On
Versions: 1 2 3 4 5 6 7 8 9 10 11 12 13 14 15 16 17 18 19 20 21 22 23 24 25 26 27 28 29 30 31 32 33 34 35 36 37 38 39 40 41 42 43 44 45 46 47 48 49 50
000
ASUS41 KCLE 290210
RWRCLE
OHIO REGIONAL WEATHER ROUNDUP
NATIONAL WEATHER SERVICE WILMINGTON, OH
1000 PM EDT THU MAY 28 2015

NOTE: "FAIR" INDICATES FEW OR NO CLOUDS BELOW 12,000 FEET WITH NO
SIGNIFICANT WEATHER AND/OR OBSTRUCTIONS TO VISIBILITY.

OHZ001>008-015>018-024>027-034-035-043-044-290300-
   NORTHWEST OHIO

CITY           SKY/WX    TMP DP  RH WIND       PRES   REMARKS
DEFIANCE       PTCLDY    71  56  58 E8        30.17S
FINDLAY        PTCLDY    73  57  57 E13       30.17R
TOLEDO EXPRESS CLEAR     65  56  72 E8        30.19S
TOLEDO EXEC    CLEAR     65  56  72 E6        30.21R
LIMA           MOCLDY    72  61  68 E6        30.17R
$$

OHZ009>014-019>023-028>033-038-089-290300-
   NORTHEAST OHIO

CITY           SKY/WX    TMP DP  RH WIND       PRES   REMARKS
CLE-HOPKINS    PTCLDY    68  57  68 E5        30.23S
CLE-LAKEFRONT  CLEAR     71  59  65 E8        30.20S
CUY CO. ARPT   PTCLDY    70 N/A N/A E9        30.24R
LORAIN-ELYRIA  CLEAR     65  55  70 E6        30.22S
ASHTABULA      CLEAR     61  54  77 CALM      30.26R
AKRON-CANTON   CLEAR     69  56  62 E7        30.23R
WOOSTER        CLEAR     67  60  78 E5        30.23R
MANSFIELD      CLEAR     69  59  70 E5        30.22R
YOUNGSTOWN     PTCLDY    64  59  83 CALM      30.25R
$$

OHZ042-051>053-060>062-070>072-077>081-290300-
  SOUTHWEST OHIO

CITY           SKY/WX    TMP DP  RH WIND       PRES   REMARKS
CINC-COVINGTON PTCLDY    71  64  78 S5        30.17R
CINC-LUNKEN    CLEAR     73  65  75 CALM      30.16R
HAMILTON       CLEAR     68  64  87 CALM      30.17R
DAYTON         PTCLDY    77  62  59 S5        30.18R
WRIGHT-PAT AFB PTCLDY    76  63  63 SE5       30.17R
DAYTON GENERAL PTCLDY    73  62  68 SE6       30.17R
WILMINGTON     CLEAR     72  62  71 SE3       30.18R
$$

OHZ036-037-039>041-045>050-054>059-063>069-073>076-082>088-290300-
  CENTRAL AND SOUTHEAST OHIO

CITY           SKY/WX    TMP DP  RH WIND       PRES   REMARKS
COLUMBUS       MOCLDY    74  62  66 E3        30.18R
OSU AIRPORT    PTCLDY    73  61  65 E5        30.19R
BOLTON FIELD   NOT AVBL
RICKENBACK AFB CLEAR     72  64  73 SE3       30.18R
NEWARK         CLEAR     71  62  73 CALM      30.19R
MARION         PTCLDY    70  59  68 E7        30.20R
LANCASTER      PTCLDY    73  63  70 CALM      30.20R
ZANESVILLE     CLEAR     72  61  68 CALM      30.20R
NEW PHILLY     CLEAR     69  62  78 CALM      30.22R
$$


USA.gov is the U.S. government's official web portal to all federal, state and local government web resources and services.